User: anonymous   Login
Location: Boca do Mato
(22.9085°S, 43.2930°W)
Time: 06:41:28
(UTC+00:00)
Language:

SKYMED 2 - Orbit

View from above orbital plane
View from above orbital plane
View from above satellite
View from above satellite

Ground track
Ground track

The orbit data is extracted from the following two-line orbital elements,

1 32376U 07059A   20273.47779103 +.00000313 +00000-0 +45912-4 0  9996
2 32376 097.8875 095.1287 0001372 085.2311 274.9078 14.82152453692988
Epoch (UTC): 29 September 2020 11:28:01
Eccentricity: 0.0001372
inclination: 97.8875°
perigee height: 621 km
apogee height: 623 km
right ascension of ascending node: 95.1287°
argument of perigee: 85.2311°
revolutions per day: 14.82152453
mean anomaly at epoch: 274.9078°
orbit number at epoch: 69298

The dashed part of the orbit path shows where the satellite is in the earth's shadow,  

DLR